Temp
1 1 1 -0 -1 -0 -1 -0 -1 1 0 1 0 -1 -2 -4 -5 -5 -5 -4 -4 -4 -5 -6 -6 -6 -8 -7 -7 -8 -8 -8 -8 -8 -7 -7 -6 -7 -7 -7 -7 -6 -6 -6
1 0 -0 -1 -1 -1 0 -1 -1 -1 -1 -0 -1 -2 -3 -4 -5 -4 -4 -4 -4 -5 -6 -6 -6 -7 -7 -7 -8 -8 -8 -8 -8 -7 -7 -7 -7 -7 -7 -7 -7 -6 -6 -6
-1 -1 -2 -2 -0 1 -0 -1 -1 -1 -0 -2 -2 -3 -4 -5 -6 -5 -5 -5 -5 -6 -6 -7 -7 -7 -7 -7 -8 -8 -8 -7 -8 -8 -7 -7 -7 -7 -7 -6 -6 -6 -6 -6
-2 -2 -2 1 1 0 -0 -0 -0 -0 -1 -1 -3 -4 -5 -5 -5 -5 -5 -5 -6 -6 -6 -7 -7 -7 -8 -7 -8 -8 -8 -7 -7 -7 -6 -6 -7 -7 -7 -7 -6 -6 -6 -6
-2 -2 -1 0 -0 -2 -2 -1 -2 -2 -2 -3 -4 -5 -5 -6 -7 -7 -6 -6 -6 -7 -7 -7 -7 -7 -8 -7 -7 -8 -7 -7 -7 -7 -7 -7 -7 -7 -6 -6 -6 -6 -6 -5
-3 -3 -1 -0 -3 -2 -2 -3 -4 -3 -4 -4 -5 -5 -5 -6 -8 -8 -7 -6 -7 -7 -7 -7 -7 -7 -8 -8 -8 -8 -8 -8 -8 -7 -7 -7 -7 -7 -6 -6 -6 -6 -5 -5
-5 -4 -3 -2 -4 -4 -4 -4 -4 -4 -5 -6 -6 -6 -6 -7 -8 -9 -8 -8 -8 -7 -8 -9 -8 -8 -8 -8 -8 -8 -8 -8 -7 -7 -7 -7 -7 -7 -6 -6 -6 -6 -6 -6
-5 -5 -3 -4 -4 -4 -4 -5 -5 -6 -7 -8 -8 -7 -8 -9 -9 -9 -9 -8 -8 -10 -10 -10 -10 -9 -8 -8 -8 -8 -8 -8 -8 -8 -8 -8 -7 -7 -7 -7 -6 -7 -6 -6
-4 -4 -5 -5 -5 -5 -5 -6 -6 -6 -7 -7 -7 -8 -9 -9 -9 -9 -10 -10 -10 -10 -10 -10 -10 -10 -9 -9 -9 -9 -9 -8 -8 -8 -8 -8 -8 -8 -8 -7 -7 -6 -6 -6
-5 -5 -5 -5 -6 -7 -7 -8 -8 -8 -8 -8 -8 -9 -9 -9 -9 -9 -9 -10 -11 -10 -10 -11 -11 -12 -10 -9 -9 -9 -9 -9 -9 -9 -9 -9 -9 -8 -8 -8 -7 -7 -7 -7
-6 -5 -5 -5 -7 -7 -8 -8 -8 -9 -9 -9 -9 -9 -9 -10 -10 -9 -9 -10 -11 -11 -11 -11 -12 -12 -12 -11 -10 -10 -10 -10 -10 -10 -9 -9 -9 -9 -9 -9 -8 -8 -8 -8
-6 -7 -8 -6 -6 -7 -7 -8 -9 -9 -10 -10 -10 -10 -10 -10 -10 -10 -10 -11 -11 -11 -12 -12 -12 -13 -13 -12 -11 -11 -11 -11 -11 -10 -10 -10 -10 -9 -10 -9 -9 -9 -9 -9
-7 -7 -7 -7 -7 -7 -9 -9 -10 -10 -10 -10 -10 -10 -10 -10 -11 -11 -11 -11 -12 -12 -11 -12 -12 -13 -13 -13 -13 -12 -12 -12 -12 -11 -11 -11 -10 -10 -9 -10 -10 -10 -9 -9
-6 -7 -7 -7 -9 -10 -10 -10 -10 -10 -10 -11 -11 -11 -11 -11 -11 -12 -12 -12 -12 -12 -12 -12 -12 -13 -13 -13 -13 -13 -13 -13 -13 -12 -12 -12 -12 -11 -11 -10 -9 -9 -10 -9
-7 -7 -8 -9 -9 -10 -11 -11 -11 -11 -11 -11 -11 -12 -12 -12 -12 -13 -13 -13 -13 -12 -13 -13 -13 -13 -13 -13 -13 -14 -14 -13 -13 -13 -13 -13 -14 -12 -12 -12 -11 -10 -10 -10
-7 -7 -8 -9 -9 -10 -11 -11 -12 -12 -13 -13 -13 -12 -13 -13 -14 -15 -15 -14 -14 -13 -14 -14 -14 -14 -14 -14 -15 -15 -15 -14 -14 -14 -14 -14 -14 -13 -13 -13 -12 -12 -11 -11
-7 -8 -8 -10 -11 -12 -12 -13 -13 -14 -13 -13 -14 -14 -15 -16 -16 -16 -16 -15 -15 -15 -15 -16 -16 -15 -15 -16 -16 -16 -16 -16 -16 -16 -16 -15 -15 -14 -13 -13 -13 -13 -12 -12
-9 -10 -11 -11 -11 -12 -13 -13 -14 -15 -15 -14 -15 -16 -16 -17 -17 -18 -18 -18 -18 -17 -18 -18 -18 -17 -17 -17 -17 -17 -17 -17 -17 -17 -17 -16 -16 -16 -15 -15 -14 -14 -13 -13
-10 -10 -10 -11 -12 -12 -13 -14 -15 -15 -16 -16 -17 -17 -18 -18 -19 -19 -19 -19 -19 -20 -20 -19 -20 -19 -19 -19 -19 -19 -18 -19 -18 -18 -18 -18 -17 -17 -17 -16 -16 -15 -15 -14
-10 -10 -10 -12 -13 -14 -14 -15 -16 -17 -17 -18 -18 -18 -19 -19 -19 -20 -20 -20 -21 -21 -21 -21 -21 -21 -20 -20 -21 -21 -21 -20 -20 -20 -20 -20 -19 -19 -18 -18 -17 -17 -16 -16
-10 -10 -12 -13 -14 -15 -16 -16 -17 -18 -18 -18 -18 -18 -19 -19 -19 -19 -19 -19 -20 -21 -21 -21 -21 -21 -21 -21 -21 -21 -21 -21 -21 -21 -21 -20 -20 -20 -20 -19 -19 -18 -17 -17
-11 -12 -13 -14 -15 -16 -16 -17 -17 -17 -18 -18 -18 -18 -18 -18 -19 -19 -19 -20 -20 -20 -20 -21 -21 -21 -21 -21 -21 -21 -21 -21 -21 -21 -21 -21 -21 -21 -21 -20 -19 -19 -19 -18
-12 -13 -14 -15 -16 -16 -17 -17 -17 -17 -18 -18 -18 -18 -18 -18 -19 -19 -19 -19 -20 -20 -20 -20 -20 -21 -21 -21 -21 -21 -21 -21 -22 -22 -22 -22 -22 -22 -22 -22 -21 -20 -19 -19
-13 -14 -15 -15 -16 -16 -17 -17 -17 -17 -17 -18 -18 -18 -18 -18 -18 -19 -19 -20 -20 -20 -20 -20 -20 -21 -21 -21 -21 -21 -22 -22 -22 -22 -22 -22 -22 -22 -22 -23 -23 -21 -20 -20
-14 -14 -15 -16 -16 -16 -16 -17 -17 -17 -17 -17 -18 -18 -18 -19 -19 -19 -19 -20 -20 -20 -20 -20 -21 -21 -22 -22 -22 -22 -23 -23 -23 -23 -23 -23 -23 -22 -22 -22 -22 -22 -21 -20
-14 -15 -15 -16 -16 -16 -17 -17 -17 -17 -17 -17 -18 -18 -18 -19 -19 -20 -20 -20 -20 -20 -20 -20 -21 -22 -22 -22 -22 -23 -23 -24 -24 -24 -24 -23 -23 -23 -23 -22 -22 -22 -21 -21
-14 -15 -16 -16 -16 -16 -17 -17 -17 -17 -17 -17 -18 -18 -19 -19 -20 -20 -20 -21 -21 -21 -21 -21 -21 -22 -22 -22 -23 -23 -24 -24 -24 -24 -24 -24 -24 -23 -23 -23 -22 -22 -21 -21
Height
3069 3070 3070 3065 3065 3065 3062 3059 3055 3041 3047 3054 3051 3046 3043 3038 3035 3030 3028 3026 3023 3020 3016 3011 3004 2998 2996 2990 2986 2980 2975 2971 2970 2968 2966 2964 2963 2960 2959 2957 2954 2951 2949 2947
3057 3061 3058 3047 3051 3050 3047 3047 3042 3038 3033 3041 3041 3039 3034 3032 3027 3024 3023 3021 3018 3014 3009 3004 2999 2993 2989 2985 2981 2975 2971 2968 2967 2967 2965 2963 2961 2958 2955 2953 2950 2947 2944 2942
3047 3055 3047 3038 3036 3032 3035 3037 3032 3029 3030 3032 3031 3029 3026 3024 3021 3018 3016 3014 3011 3007 3003 2999 2994 2988 2984 2979 2975 2972 2968 2966 2964 2963 2962 2960 2957 2954 2951 2948 2945 2942 2940 2938
3048 3049 3039 3030 3028 3027 3028 3027 3028 3028 3029 3028 3024 3020 3017 3016 3014 3013 3010 3008 3005 3001 2998 2993 2989 2984 2980 2977 2973 2970 2967 2964 2961 2960 2958 2957 2954 2951 2948 2945 2942 2940 2937 2935
3046 3041 3027 3024 3024 3021 3020 3020 3022 3021 3020 3018 3016 3011 3012 3011 3009 3006 3003 3001 2998 2994 2992 2988 2984 2979 2977 2973 2970 2966 2964 2962 2959 2957 2956 2954 2952 2949 2945 2943 2939 2936 2933 2931
3039 3036 3027 3019 3014 3017 3014 3014 3011 3013 3012 3010 3008 3006 3007 3006 3003 2999 2997 2994 2991 2989 2985 2982 2977 2974 2972 2968 2966 2964 2961 2959 2957 2954 2953 2951 2948 2945 2942 2939 2935 2932 2929 2925
3029 3027 3020 3018 3009 3012 3014 3014 3009 3009 3008 3005 3003 3002 3000 2998 2996 2994 2988 2987 2984 2981 2977 2974 2971 2969 2967 2964 2961 2960 2957 2955 2953 2950 2948 2947 2944 2941 2937 2933 2930 2927 2923 2920
3022 3022 3018 3010 3009 3013 3010 3006 3006 3003 3001 2999 2997 2996 2994 2992 2989 2986 2981 2978 2976 2975 2973 2969 2963 2962 2960 2958 2956 2955 2952 2949 2947 2945 2943 2941 2939 2935 2932 2928 2926 2922 2919 2915
3017 3014 3011 3008 3007 3007 3005 3002 3001 2998 2997 2994 2992 2990 2987 2983 2981 2978 2974 2971 2970 2970 2967 2961 2956 2954 2952 2951 2949 2948 2945 2943 2942 2940 2937 2935 2933 2930 2927 2923 2920 2917 2913 2908
3010 3011 3008 3006 3005 3004 3001 2999 2998 2996 2992 2990 2987 2983 2979 2976 2973 2969 2965 2962 2961 2960 2957 2952 2949 2945 2942 2942 2940 2939 2938 2937 2935 2934 2932 2929 2927 2924 2921 2917 2914 2910 2906 2903
3004 3003 3003 3002 3000 2998 2996 2994 2990 2988 2986 2983 2980 2977 2975 2971 2965 2960 2958 2954 2951 2949 2947 2944 2941 2937 2934 2931 2930 2930 2930 2928 2927 2925 2924 2922 2920 2917 2914 2911 2906 2902 2899 2896
2998 2999 2998 2996 2994 2992 2989 2987 2984 2981 2978 2976 2973 2969 2964 2959 2956 2951 2948 2945 2942 2939 2937 2935 2933 2930 2926 2923 2920 2921 2920 2919 2917 2916 2915 2913 2911 2911 2907 2904 2902 2898 2894 2889
2995 2993 2992 2990 2988 2986 2984 2981 2979 2976 2972 2967 2963 2958 2954 2949 2947 2942 2938 2935 2933 2930 2927 2925 2923 2920 2917 2915 2911 2912 2910 2909 2908 2906 2905 2903 2902 2900 2899 2899 2895 2892 2888 2885
2989 2988 2987 2984 2983 2981 2978 2974 2970 2967 2963 2958 2952 2946 2944 2941 2938 2933 2929 2926 2923 2921 2919 2916 2912 2909 2906 2904 2903 2901 2900 2899 2897 2896 2895 2894 2892 2890 2888 2886 2884 2884 2882 2878
2984 2982 2980 2978 2975 2973 2969 2964 2960 2957 2952 2948 2942 2938 2934 2929 2925 2921 2919 2916 2913 2910 2906 2905 2902 2899 2896 2894 2892 2892 2890 2888 2887 2885 2884 2883 2882 2881 2880 2877 2875 2873 2871 2870
2979 2977 2974 2971 2967 2965 2961 2956 2952 2947 2942 2937 2933 2927 2920 2917 2914 2910 2907 2904 2902 2899 2896 2893 2891 2888 2886 2884 2883 2881 2879 2878 2877 2875 2874 2873 2873 2871 2870 2868 2866 2864 2862 2860
2973 2971 2967 2964 2959 2954 2949 2946 2941 2936 2931 2924 2919 2915 2909 2905 2903 2900 2896 2894 2891 2888 2884 2881 2880 2878 2876 2873 2872 2870 2868 2867 2866 2865 2863 2863 2862 2861 2860 2858 2856 2855 2854 2852
2968 2965 2960 2954 2949 2944 2939 2935 2930 2927 2920 2915 2910 2904 2898 2894 2890 2886 2882 2880 2878 2876 2871 2869 2867 2865 2864 2863 2861 2859 2857 2855 2854 2854 2852 2851 2850 2850 2849 2848 2846 2845 2844 2843
2962 2957 2952 2948 2941 2936 2931 2926 2921 2915 2910 2905 2900 2895 2890 2886 2881 2877 2873 2870 2867 2864 2862 2859 2856 2854 2853 2851 2849 2847 2846 2843 2842 2841 2840 2839 2838 2838 2837 2836 2835 2835 2834 2833
2954 2950 2947 2941 2935 2930 2926 2920 2915 2910 2904 2898 2893 2888 2884 2880 2875 2871 2867 2863 2861 2858 2854 2850 2846 2844 2842 2840 2837 2836 2833 2831 2830 2829 2828 2826 2825 2824 2824 2824 2824 2824 2824 2823
2949 2945 2942 2937 2931 2925 2920 2915 2910 2904 2899 2895 2890 2885 2880 2875 2871 2866 2861 2857 2854 2849 2845 2842 2838 2835 2831 2828 2826 2823 2821 2818 2816 2814 2813 2812 2811 2810 2810 2811 2811 2812 2812 2813
2945 2941 2936 2931 2925 2920 2915 2911 2906 2902 2897 2892 2887 2882 2877 2872 2867 2862 2857 2852 2847 2843 2838 2834 2829 2824 2820 2816 2813 2810 2807 2805 2802 2799 2797 2796 2795 2795 2795 2795 2797 2798 2799 2801
2940 2936 2929 2924 2920 2916 2912 2907 2903 2899 2895 2889 2884 2878 2873 2868 2862 2856 2851 2847 2840 2834 2829 2823 2817 2812 2808 2804 2800 2797 2794 2791 2789 2787 2785 2784 2782 2781 2781 2781 2782 2783 2784 2787
2935 2930 2925 2921 2917 2914 2910 2906 2902 2897 2892 2887 2881 2875 2870 2864 2860 2853 2846 2840 2833 2827 2820 2813 2807 2802 2797 2793 2790 2786 2783 2779 2777 2775 2773 2772 2771 2770 2770 2769 2769 2770 2772 2774
2929 2925 2922 2918 2915 2911 2908 2903 2899 2895 2890 2884 2879 2873 2867 2860 2854 2848 2841 2834 2827 2819 2812 2805 2798 2792 2788 2784 2781 2777 2773 2769 2766 2764 2762 2761 2760 2760 2760 2759 2759 2760 2761 2763
2925 2922 2919 2916 2913 2910 2905 2901 2897 2892 2887 2882 2876 2869 2863 2857 2850 2844 2837 2830 2822 2814 2805 2796 2789 2784 2780 2776 2772 2768 2763 2759 2757 2754 2752 2751 2751 2750 2750 2750 2749 2750 2751 2754
2922 2920 2917 2914 2911 2907 2903 2899 2895 2890 2884 2879 2873 2867 2861 2855 2848 2842 2835 2827 2819 2811 2801 2792 2783 2777 2773 2769 2764 2760 2756 2752 2749 2746 2744 2743 2742 2742 2741 2741 2741 2741 2743 2746
Wind_Speed
37 48 45 47 43 37 35 37 35 54 44 37 34 33 32 28 19 26 32 28 26 29 32 34 38 39 30 28 30 28 25 23 14 15 9 6 3 9 13 16 20 22 22 22
47 47 47 45 40 46 45 50 48 49 53 40 33 27 26 23 29 36 35 25 26 29 29 33 33 33 29 27 24 22 20 17 13 6 6 9 11 13 19 24 24 21 21 21
40 34 26 25 36 37 37 37 38 39 37 26 26 19 20 25 29 28 25 25 27 28 27 27 28 26 23 20 16 17 16 13 12 13 13 16 19 21 20 19 18 17 16 16
33 23 8 24 16 16 15 18 20 26 23 20 21 21 28 33 27 23 28 25 28 26 28 28 24 22 20 19 17 14 11 8 7 8 14 14 13 12 11 11 11 12 13 12
16 21 30 38 21 17 15 15 11 20 25 26 22 29 30 22 18 24 29 28 27 29 29 29 25 19 20 18 17 15 13 13 10 9 8 9 11 11 12 13 15 15 16 16
17 8 6 13 12 14 17 18 13 12 22 26 28 30 25 22 19 29 32 27 29 30 31 29 26 21 19 17 16 14 11 10 9 9 10 11 12 14 15 16 18 19 19 20
31 16 16 14 14 18 10 10 15 20 17 19 22 25 26 26 25 23 33 32 32 31 28 27 27 23 20 20 18 17 14 12 11 12 12 16 16 17 18 19 20 22 22 21
15 12 11 15 18 14 16 20 25 23 19 17 24 27 24 23 25 28 35 36 28 20 25 28 34 25 23 23 22 20 18 16 15 15 16 18 19 20 21 21 22 22 22 22
11 6 13 16 20 25 28 26 23 25 26 26 26 24 24 29 28 27 32 36 21 22 24 26 36 33 27 24 24 23 22 21 20 20 20 20 21 21 21 22 22 22 22 23
16 17 23 22 20 17 20 20 21 24 24 26 29 34 37 29 26 30 41 34 24 24 29 32 35 32 32 29 28 26 25 24 23 23 22 22 22 23 22 22 22 22 23 23
21 22 20 15 12 14 17 22 24 23 22 27 25 29 28 32 36 38 44 41 31 32 30 30 34 32 32 33 32 29 27 26 25 24 24 23 23 23 23 23 25 25 25 26
16 5 13 18 22 23 24 24 25 24 26 25 27 30 32 37 37 40 42 35 35 31 31 30 26 28 29 37 33 31 29 29 28 27 26 25 25 23 23 24 24 25 26 29
12 18 21 24 24 21 20 20 23 28 28 28 32 36 40 43 38 42 33 33 33 32 30 33 29 28 35 37 34 31 31 30 29 28 28 27 27 27 27 22 25 26 27 28
15 16 18 19 20 20 22 25 28 27 31 35 34 35 38 40 35 32 30 30 34 33 34 38 36 35 39 41 36 36 35 34 32 30 27 28 29 29 30 31 30 27 26 28
13 16 19 21 24 24 27 29 26 30 32 28 27 43 45 39 39 43 40 35 38 29 34 34 35 41 42 40 39 32 31 30 30 29 29 28 28 31 30 30 30 31 30 28
18 20 24 26 29 32 33 34 33 36 38 42 41 41 41 40 36 35 36 37 40 43 37 34 34 35 32 31 33 32 30 30 29 29 28 29 29 30 32 30 30 30 29 29
22 26 30 32 33 37 39 41 38 36 41 36 31 30 34 40 44 48 50 48 45 44 45 39 37 37 36 36 36 35 35 33 32 31 32 33 33 34 33 33 33 32 30 28
25 28 31 35 40 43 43 43 41 39 43 48 55 54 48 42 39 37 37 36 34 35 38 38 34 31 30 29 30 32 32 32 33 34 35 35 35 35 35 34 34 34 33 31
28 33 38 41 42 42 42 41 40 39 40 39 38 37 34 33 32 32 33 33 31 28 25 28 31 30 29 30 32 34 36 37 36 36 37 39 39 37 37 37 36 36 35 33
33 39 38 36 35 34 33 32 31 31 31 32 32 32 31 30 29 29 29 30 26 23 26 27 30 30 28 30 35 34 36 36 36 35 35 36 38 39 38 38 38 37 36 35
33 34 30 27 25 24 24 23 24 24 25 25 26 26 26 26 26 26 26 26 23 23 26 29 33 35 37 37 39 39 39 41 43 44 44 44 45 45 43 41 40 38 37 36
26 25 22 19 19 19 19 20 21 22 24 25 27 27 28 28 29 28 28 29 30 30 32 32 33 34 36 36 36 36 36 37 37 38 38 37 38 40 42 43 44 42 40 37
20 17 16 17 18 18 19 21 23 25 26 28 30 31 31 31 32 33 33 32 33 34 35 35 35 35 35 34 35 35 35 35 36 36 35 33 32 32 33 34 35 36 37 39
13 13 14 16 17 18 20 22 25 27 29 29 30 31 32 32 31 31 33 34 34 35 35 35 34 32 30 30 30 31 31 31 30 30 31 30 30 29 29 27 28 30 30 29
12 13 14 16 18 19 22 24 26 27 29 30 30 30 30 31 32 32 33 34 35 36 36 35 33 31 30 29 29 30 31 30 29 28 27 27 27 27 27 27 27 27 26 26
12 13 14 16 18 20 22 24 27 28 29 30 30 31 31 31 32 32 33 35 37 39 39 36 33 30 28 28 28 31 30 27 26 25 25 24 24 23 23 23 24 24 25 24
12 13 15 16 18 20 22 25 26 27 28 29 30 31 31 31 32 32 33 35 36 39 41 37 33 28 26 27 28 28 25 24 23 22 21 21 21 20 21 21 22 22 22 22
Wind_Direction
292 301 295 289 278 261 242 251 251 273 267 272 272 285 294 290 286 287 297 298 301 307 309 306 307 312 315 307 311 317 326 328 315 316 313 285 245 293 296 296 301 303 301 303
295 299 296 291 281 268 260 267 260 264 271 281 286 276 265 275 280 283 292 287 302 310 310 310 315 316 308 307 314 321 325 328 310 260 275 296 293 300 302 302 302 302 300 299
283 292 289 274 280 276 264 256 269 262 286 283 271 264 270 268 275 286 290 292 307 310 312 316 316 319 323 324 323 329 324 318 312 274 293 303 303 303 304 307 309 311 309 305
281 279 247 283 277 256 249 253 257 266 269 269 264 266 269 279 281 288 285 297 308 307 312 315 314 316 319 321 317 319 338 322 316 317 302 303 308 311 319 322 324 322 322 321
252 258 272 278 279 266 271 271 255 252 252 256 264 268 277 281 294 276 285 300 302 304 309 310 312 310 309 313 310 314 312 305 309 299 290 304 314 318 323 324 326 325 321 318
247 245 264 289 254 263 294 290 280 267 257 262 269 275 283 287 253 268 285 296 305 305 303 298 305 310 308 311 304 300 298 292 299 302 302 305 313 320 321 321 324 319 317 318
239 245 262 261 263 292 298 285 292 301 293 284 279 286 292 292 290 293 285 295 297 298 304 302 296 297 299 298 295 289 284 284 288 295 303 310 315 317 321 327 328 326 326 323
230 238 256 248 263 276 283 293 298 296 307 292 290 294 290 288 280 279 290 294 295 295 292 290 290 290 289 288 286 282 281 282 285 288 295 301 309 316 319 323 323 322 319 327
201 244 277 284 290 292 295 289 291 295 296 293 294 295 286 282 283 290 283 289 285 274 273 268 279 286 281 278 277 278 281 284 285 288 294 299 305 309 311 313 314 320 325 332
250 258 246 262 279 289 296 295 293 286 287 288 284 279 287 294 298 277 282 286 273 262 266 272 280 275 281 276 273 273 274 276 278 283 288 292 299 303 306 309 313 320 327 333
252 270 273 282 283 285 274 281 292 299 289 286 290 287 290 288 276 275 282 292 283 278 270 270 282 275 274 276 276 273 273 274 275 279 282 287 294 299 303 310 316 323 329 333
268 273 276 283 287 296 297 298 298 300 299 293 289 286 283 278 282 285 290 295 295 290 284 270 272 270 270 276 276 276 276 275 276 278 279 282 284 288 296 302 309 317 324 328
246 251 271 289 296 302 305 301 299 297 295 290 279 274 276 281 287 285 278 294 287 290 272 278 265 261 266 281 275 282 278 277 277 278 279 280 281 284 284 284 297 304 310 317
275 284 291 297 307 308 307 288 281 282 285 285 283 285 288 286 280 291 294 296 296 295 288 280 269 260 272 282 278 281 278 275 274 275 278 283 284 285 288 290 292 294 300 307
293 300 301 292 291 291 286 292 304 298 293 288 285 297 292 280 288 300 303 290 288 284 281 281 275 265 278 282 280 285 282 282 280 281 280 280 286 290 290 290 291 294 298 303
287 288 292 297 297 303 305 302 298 297 298 295 292 284 282 288 292 291 290 286 288 289 296 285 279 274 275 269 268 274 277 279 281 283 283 282 286 289 292 293 293 293 295 300
304 303 302 303 306 309 310 308 305 299 289 283 282 280 292 303 303 304 304 302 300 293 293 287 283 282 284 287 287 287 286 286 285 282 282 283 283 284 288 288 289 291 293 297
304 303 308 313 315 314 313 310 305 298 292 294 300 306 309 309 306 303 299 297 294 291 292 293 290 286 281 273 279 284 283 279 278 277 277 276 275 278 280 282 284 285 287 289
312 318 319 318 316 314 313 313 313 311 312 311 312 315 318 318 313 309 304 303 304 303 294 292 293 290 285 279 277 276 277 279 279 278 278 278 277 276 277 279 280 282 284 285
320 317 319 318 315 313 315 316 318 321 321 323 323 324 324 324 323 320 316 313 310 302 299 294 288 287 284 281 284 284 283 281 280 278 276 276 276 275 274 274 275 277 278 280
316 315 317 318 319 324 331 334 341 344 346 344 342 341 340 338 336 334 328 324 320 306 295 291 292 295 293 290 289 290 286 283 282 280 278 278 279 279 276 273 272 271 272 275
314 314 321 334 344 348 352 356 358 357 354 349 344 342 339 338 336 333 332 326 323 319 312 309 302 298 296 294 292 290 288 286 285 285 285 283 279 276 275 275 272 270 270 271
314 323 342 355 0 1 3 360 356 351 347 345 341 341 340 337 336 333 330 328 324 320 318 313 308 303 299 297 294 293 291 289 286 284 284 284 283 279 275 274 273 272 270 267
329 352 2 6 6 5 1 355 351 347 345 344 340 337 336 335 336 332 330 329 326 324 321 318 314 310 307 305 303 303 301 297 292 287 282 279 278 279 276 271 270 269 267 266
357 4 8 8 4 360 355 352 349 346 344 342 341 340 340 339 339 341 341 341 340 337 332 325 317 309 307 306 307 308 305 301 297 292 287 280 277 276 277 275 271 268 261 258
0 5 5 2 359 355 353 350 347 345 346 346 346 347 346 346 347 346 345 345 345 345 341 334 326 317 311 309 310 312 309 304 299 294 290 285 279 276 276 276 270 262 256 252
360 0 359 356 354 352 351 349 348 348 349 350 350 349 349 348 347 346 346 346 347 350 350 346 339 330 321 318 317 317 313 309 303 298 292 286 281 277 277 276 272 261 252 245